Location: Caltech
(34.1382°N, 118.1253°W)
Time: 23:03:45
(UTC-08:00)

HO-68 - Visible Passes

Search period start: 20 February 2018 00:00
Search period end: 02 March 2018 00:00
Orbit: 1193 x 1204 km, 100.1° (Epoch: 20 February)

Date Brightness Start Highest point End Pass type
(mag) Time Alt. Az. Time Alt. Az. Time Alt. Az.
20 Feb ? 18:34:07 10° S 18:41:03 54° W 18:48:02 10° NNW visible
21 Feb ? 06:05:56 10° NNE 06:12:31 37° E 06:19:02 10° SSE visible
21 Feb ? 18:16:59 10° S 18:24:05 72° WSW 18:31:15 10° NNW visible
22 Feb ? 05:49:30 10° NE 05:55:28 28° E 06:01:24 10° SSE visible
22 Feb ? 18:00:02 10° SSE 18:07:11 87° ENE 18:14:22 10° NNW visible
22 Feb ? 19:52:34 10° WSW 19:55:36 13° W 19:58:38 10° WNW visible
23 Feb ? 05:33:20 10° NE 05:38:23 20° E 05:43:23 10° SE visible
23 Feb ? 19:33:43 10° SW 19:38:27 19° W 19:43:13 10° NW visible
24 Feb ? 05:17:42 10° ENE 05:21:15 14° E 05:24:47 10° ESE visible
24 Feb ? 19:15:38 10° SSW 19:21:22 26° W 19:27:08 10° NW visible
25 Feb ? 18:57:55 10° SSW 19:04:19 35° W 19:10:45 10° NW visible
26 Feb ? 18:40:29 10° S 18:47:17 47° W 18:54:09 10° NNW visible
27 Feb ? 18:23:16 10° S 18:30:19 64° WSW 18:37:26 10° NNW visible
28 Feb ? 05:55:29 10° NE 06:01:44 31° E 06:07:58 10° SSE visible
28 Feb ? 18:06:14 10° SSE 18:13:23 84° WSW 18:20:35 10° NNW visible
28 Feb ? 20:00:14 10° WSW 20:01:55 11° W 20:03:37 10° WNW visible
01 Mar ? 05:39:11 10° NE 05:44:41 23° E 05:50:08 10° SE visible
01 Mar ? 19:40:37 10° SW 19:44:46 16° W 19:48:57 10° NW visible
